NI4CE-10 Weather Reports


time (UTC)temp
C
wind
direction
speed
KPH
gust
KPH
rain 1hr
cm
rain 24hr
cm
rain mn
cm
humidity
%
barometer
mb
20260503211058 25 94 11.3 14.5 0.00 1.70 1.52 100 1017.4
20260503210652 25 87 4.8 16.1 0.00 1.70 1.52 100 1017.4
20260503210558 25 87 4.8 16.1 0.00 1.70 1.52 100 1017.4
20260503210058 25 78 6.4 14.5 0.00 1.70 1.52 100 1017.3
20260503205805 25 61 6.4 14.5 0.00 1.70 1.52 100 1017.5
20260503205558 25 61 6.4 14.5 0.00 1.70 1.52 100 1017.5
20260503205058 25 61 12.9 17.7 0.00 1.70 1.52 100 1017.6
20260503204558 25 46 8.0 16.1 0.00 1.70 1.52 100 1017.7
20260503204128 25 37 9.7 16.1 0.00 1.70 1.52 100 1017.8
20260503204058 25 42 11.3 19.3 0.00 1.70 1.52 100 1017.8
20260503203558 25 37 9.7 16.1 0.00 1.70 1.52 100 1017.8
20260503203455 25 91 9.7 20.9 0.00 3.40 1.52 100 1018.0
20260503203058 25 56 8.0 16.1 0.00 1.70 1.52 100 1017.8
20260503203014 25 85 9.7 17.7 0.00 3.40 1.52 100 1017.8
20260503202558 25 85 9.7 17.7 0.00 3.40 1.52 100 1017.8
20260503202058 25 68 14.5 17.7 0.00 3.40 1.52 100 1017.9
20260503201558 24 39 12.9 20.9 0.00 3.40 1.52 100 1017.9
20260503201058 25 78 12.9 17.7 0.00 3.40 1.52 100 1017.9
20260503200558 25 95 8.0 17.7 0.00 3.40 1.52 100 1017.9
20260503200058 25 91 9.7 20.9 0.00 3.40 1.52 100 1018.0
20260503200044 25 78 16.1 22.5 0.00 3.40 1.52 100 1018.1
20260503195558 25 78 16.1 22.5 0.00 3.40 1.52 100 1018.1
20260503195430 25 80 1.6 22.5 0.00 3.40 1.52 100 1018.1
20260503195058 25 80 1.6 22.5 0.00 3.40 1.52 100 1018.1
20260503194601 25 74 12.9 17.7 0.00 3.40 1.52 100 1018.2
20260503194558 25 43 19.3 20.9 0.00 3.40 1.52 100 1018.2
20260503194058 25 74 12.9 17.7 0.00 3.40 1.52 100 1018.2
20260503193558 24 56 6.4 19.3 0.00 3.40 1.52 100 1018.1
20260503193316 23 52 17.7 19.3 0.00 3.40 1.52 100 1018.3
20260503193058 23 52 17.7 19.3 0.00 3.40 1.52 100 1018.3
20260503192821 23 49 9.7 22.5 0.00 3.40 1.52 100 1018.4
20260503192651 23 49 9.7 22.5 0.00 3.40 1.52 100 1018.4
20260503192558 23 49 9.7 22.5 0.00 3.40 1.52 100 1018.4
20260503192548 23 74 16.1 19.3 0.00 3.40 1.52 100 1018.4
20260503192059 23 74 16.1 19.3 0.00 3.40 1.52 100 1018.4
20260503191900 23 71 6.4 17.7 0.00 3.40 1.52 100 1018.7
20260503191815 24 147 6.4 20.9 0.00 3.40 1.52 100 1018.5
20260503191559 24 147 6.4 20.9 0.00 3.40 1.52 100 1018.5
20260503191059 23 35 6.4 19.3 0.00 3.40 1.52 100 1018.6
20260503190559 23 71 6.4 17.7 0.00 3.40 1.52 100 1018.7
20260503190059 23 5 6.4 22.5 0.00 3.40 1.52 100 1018.7
20260503185638 23 40 11.3 19.3 0.00 3.40 1.52 100 1019.0
20260503185559 23 26 4.8 20.9 0.00 3.40 1.52 100 1018.8
20260503185059 23 40 11.3 19.3 0.00 3.40 1.52 100 1019.0
20260503184809 23 66 14.5 19.3 0.00 3.40 1.52 100 1019.1
20260503184559 23 66 14.5 19.3 0.00 3.40 1.52 100 1019.1
20260503184059 23 120 9.7 22.5 0.00 3.40 1.52 100 1019.2
20260503184003 23 28 17.7 19.3 0.00 3.40 1.52 100 1019.3
20260503183559 23 28 17.7 19.3 0.00 3.40 1.52 100 1019.3
20260503183433 22 90 14.5 22.5 0.00 3.40 1.52 100 1019.4
20260503183059 22 90 14.5 22.5 0.00 3.40 1.52 100 1019.4
20260503182559 23 49 8.0 19.3 0.00 3.40 1.52 100 1019.4
20260503182212 22 73 11.3 17.7 0.00 3.40 1.52 100 1019.4
20260503182059 22 73 11.3 17.7 0.00 3.40 1.52 100 1019.4
20260503181559 22 66 9.7 19.3 0.00 3.40 1.52 100 1019.4
20260503181059 22 99 8.0 14.5 0.00 3.40 1.52 100 1019.4
20260503180739 22 116 12.9 24.1 0.00 3.40 1.52 100 1019.5
20260503180559 22 116 12.9 24.1 0.00 3.40 1.52 100 1019.5
20260503180059 22 64 19.3 19.3 0.00 3.40 1.52 100 1019.5
20260503175559 22 71 9.7 16.1 0.00 3.40 1.52 100 1019.6
20260503175059 22 49 8.0 17.7 0.00 3.40 1.52 100 1019.6
20260503174825 22 82 1.6 12.9 0.00 3.40 1.52 100 1019.8
20260503174559 22 74 11.3 16.1 0.00 3.40 1.52 100 1019.7
20260503174059 21 81 11.3 20.9 0.00 3.40 1.52 100 1019.8
20260503173631 22 82 1.6 12.9 0.00 3.40 1.52 100 1019.8
20260503173559 22 67 9.7 17.7 0.00 3.40 1.52 100 1019.8
20260503173059 22 82 1.6 12.9 0.00 3.40 1.52 100 1019.8
20260503172940 21 59 8.0 19.3 0.00 3.40 1.52 100 1019.8
20260503172819 21 90 8.0 19.3 0.00 3.40 1.52 100 1019.8
20260503172559 21 59 8.0 19.3 0.00 3.40 1.52 100 1019.8
20260503172525 21 90 8.0 19.3 0.00 3.40 1.52 100 1019.8
20260503172059 21 90 8.0 19.3 0.00 3.40 1.52 100 1019.8
20260503172013 21 78 11.3 17.7 0.00 3.40 1.52 100 1019.8
20260503171835 21 78 11.3 17.7 0.00 3.40 1.52 100 1019.8
20260503171559 21 78 11.3 17.7 0.00 3.40 1.52 100 1019.8
20260503171439 21 42 6.4 17.7 0.00 3.40 1.52 100 1020.0
20260503171059 21 42 6.4 17.7 0.00 3.40 1.52 100 1020.0
20260503170559 21 70 6.4 14.5 0.00 3.40 1.52 100 1020.0
20260503150600 20 78 11.3 25.7 0.00 3.40 1.52 100 1020.1
20260503150514 20 74 8.0 22.5 0.00 3.40 1.52 100 1020.0
20260503131100 19 15 11.3 12.9 0.00 3.40 1.52 100 1019.3
20260503130600 18 39 4.8 12.9 0.00 3.40 1.52 100 1019.2
20260503110601 18 28 3.2 12.9 0.00 3.40 1.52 100 1017.9
20260503100206 18 54 4.8 14.5 0.00 3.40 1.52 100 1017.3
20260503081622 20 49 3.2 19.3 0.23 3.40 1.52 100 1016.3
20260503081601 20 4 11.3 22.5 0.10 3.40 1.52 100 1016.6
20260503081345 20 49 3.2 19.3 0.23 3.40 1.52 100 1016.3
20260503081101 20 49 3.2 19.3 0.23 3.40 1.52 100 1016.3
20260503081025 20 36 11.3 19.3 0.30 3.40 1.52 100 1016.0
20260503080601 20 36 11.3 19.3 0.30 3.40 1.52 100 1016.0
20260503080554 20 16 6.4 19.3 0.48 3.40 1.52 100 1016.0
20260503072602 20 347 9.7 14.5 1.12 3.38 1.50 100 1016.1
20260503072102 20 355 8.0 16.1 1.17 3.38 1.50 100 1016.4
20260503071602 20 345 11.3 19.3 1.14 3.30 1.42 100 1016.4
20260503071514 20 358 4.8 12.9 1.14 3.17 1.30 100 1016.4
20260503071136 20 358 4.8 12.9 1.14 3.17 1.30 100 1016.4
20260503071102 20 358 4.8 12.9 1.14 3.17 1.30 100 1016.4
20260503070819 21 348 11.3 12.9 1.12 3.10 1.22 100 1016.5
20260503070602 21 348 11.3 12.9 1.12 3.10 1.22 100 1016.5
20260503055102 21 268 0.0 0.0 0.00 1.88 0.00 100 1016.6
20260503054602 21 268 0.0 0.0 0.00 1.88 0.00 100 1016.7
20260503054442 21 268 0.0 6.4 0.00 1.88 0.00 100 1016.7
20260503054135 21 268 0.0 6.4 0.00 1.88 0.00 100 1016.7
20260503054102 21 268 0.0 6.4 0.00 1.88 0.00 100 1016.7
20260503053614 21 157 0.0 0.0 0.00 1.88 0.00 100 1016.6
20260503053602 21 237 0.0 1.6 0.00 1.88 0.00 100 1016.8
20260503053102 21 157 0.0 0.0 0.00 1.88 0.00 100 1016.6
20260503052602 21 157 0.0 0.0 0.00 1.88 0.00 100 1016.5
20260503052102 21 157 0.0 1.6 0.00 1.88 0.00 100 1016.3
20260503051602 21 157 1.6 3.2 0.00 1.88 0.00 100 1016.5
20260503051515 21 217 0.0 4.8 0.00 1.88 0.00 100 1016.7
20260503051102 21 217 0.0 4.8 0.00 1.88 0.00 100 1016.7
20260503050602 21 194 1.6 4.8 0.00 1.88 0.00 100 1016.9
20260503045757 21 217 3.2 8.0 0.00 1.88 1.88 100 1016.7
20260503045604 21 217 6.4 8.0 0.00 1.88 1.88 100 1016.8
20260503045602 21 241 3.2 9.7 0.00 1.88 1.88 100 1016.8
20260503045102 21 217 6.4 8.0 0.00 1.88 1.88 100 1016.8
20260503044602 21 217 3.2 8.0 0.00 1.88 1.88 100 1016.7
20260503044532 21 213 1.6 4.8 0.00 1.88 1.88 100 1016.9
20260503044102 21 213 1.6 4.8 0.00 1.88 1.88 100 1016.9
20260503043602 21 223 4.8 6.4 0.00 1.88 1.88 100 1017.0
20260503043416 21 140 1.6 8.0 0.00 1.88 1.88 100 1016.9
20260503043102 21 140 1.6 8.0 0.00 1.88 1.88 100 1016.9
20260503042602 21 220 6.4 9.7 0.00 1.88 1.88 100 1017.0
20260503042102 21 210 6.4 9.7 0.00 1.88 1.88 100 1016.9
20260503041602 21 170 1.6 8.0 0.00 1.88 1.88 100 1016.8
20260503041339 21 216 4.8 6.4 0.00 1.88 1.88 100 1016.9
20260503041102 21 216 4.8 6.4 0.00 1.88 1.88 100 1016.9
20260503040602 21 227 0.0 3.2 0.00 1.88 1.88 100 1017.0
20260503035801 21 230 0.0 0.0 0.00 1.88 1.88 100 1016.6
20260503035640 21 230 0.0 0.0 0.00 1.88 1.88 100 1016.6
20260503035602 21 230 0.0 0.0 0.00 1.88 1.88 100 1016.9
20260503035102 21 230 0.0 0.0 0.00 1.88 1.88 100 1016.6
20260503035002 20 230 0.0 0.0 0.00 1.88 1.88 100 1016.5
20260503034839 20 230 0.0 0.0 0.00 1.88 1.88 100 1016.5
20260503034602 20 230 0.0 0.0 0.00 1.88 1.88 100 1016.5
20260503034524 21 230 0.0 0.0 0.00 1.88 1.88 100 1016.3
20260503034102 21 230 0.0 0.0 0.00 1.88 1.88 100 1016.3
20260503033603 21 230 0.0 0.0 0.00 1.88 1.88 100 1016.3
20260503033102 21 230 0.0 0.0 0.00 1.88 1.88 100 1016.3
20260503033010 21 230 0.0 1.6 0.00 1.88 1.88 100 1016.1
20260503032603 21 230 0.0 0.0 0.00 1.88 1.88 100 1016.2
20260503032103 21 230 0.0 1.6 0.00 1.88 1.88 100 1016.1
20260503031630 21 215 0.0 0.0 0.00 1.88 1.88 100 1015.4
20260503031603 21 205 0.0 6.4 0.00 1.88 1.88 100 1015.9
20260503031103 21 194 0.0 1.6 0.00 1.88 1.88 100 1015.7
20260503030603 21 215 0.0 0.0 0.00 1.88 1.88 100 1015.4
20260503025603 21 215 0.0 1.6 0.00 1.88 1.88 100 1015.5
20260503025528 21 202 1.6 8.0 0.00 1.88 1.88 100 1016.0
20260503025103 21 202 1.6 8.0 0.00 1.88 1.88 100 1016.0
20260503024732 21 198 1.6 4.8 0.00 1.88 1.88 100 1015.9
20260503024603 21 258 3.2 6.4 0.00 1.88 1.88 100 1016.2
20260503024103 21 198 1.6 4.8 0.00 1.88 1.88 100 1015.9
20260503023717 21 229 0.0 0.0 0.00 1.88 1.88 100 1015.7
20260503023603 21 229 0.0 0.0 0.00 1.88 1.88 100 1015.8
20260503023103 21 229 0.0 0.0 0.00 1.88 1.88 100 1015.7
20260503022603 21 229 0.0 0.0 0.00 1.88 1.88 100 1015.7
20260503022103 21 229 0.0 0.0 0.00 1.88 1.88 100 1015.9
20260503021603 21 229 0.0 0.0 0.00 1.88 1.88 100 1015.9
20260503021152 21 243 4.8 8.0 0.00 1.88 1.88 100 1016.0
20260503021103 21 229 0.0 4.8 0.00 1.88 1.88 100 1016.0
20260503020603 21 237 0.0 9.7 0.00 1.88 1.88 100 1015.9
20260503015603 21 225 3.2 6.4 0.00 1.88 1.88 100 1016.0
20260503015103 21 248 3.2 6.4 0.00 1.88 1.88 100 1016.0
20260503014731 21 257 0.0 8.0 0.00 1.88 1.88 100 1016.0
20260503014603 20 192 0.0 8.0 0.00 1.88 1.88 100 1016.0
20260503014150 21 257 0.0 8.0 0.00 1.88 1.88 100 1016.0
20260503014103 21 257 0.0 8.0 0.00 1.88 1.88 100 1016.0
20260503013603 20 201 0.0 8.0 0.03 1.88 1.88 100 1015.7
20260503013521 20 246 4.8 6.4 0.03 1.88 1.88 100 1015.6
20260503013103 20 246 4.8 6.4 0.03 1.88 1.88 100 1015.6
20260503012603 20 40 0.0 0.0 0.03 1.88 1.88 100 1014.9
20260503012254 20 106 0.0 0.0 0.03 1.88 1.88 100 1015.0
20260503012103 20 106 0.0 0.0 0.03 1.88 1.88 100 1014.7
20260503011603 20 106 0.0 0.0 0.03 1.88 1.88 100 1014.7
20260503011104 20 106 0.0 0.0 0.03 1.88 1.88 100 1015.0
20260503010754 21 289 0.0 3.2 0.00 1.85 1.85 100 1014.5
20260503010603 20 106 0.0 3.2 0.03 1.88 1.88 100 1014.7
20260503010103 20 156 3.2 4.8 0.03 1.88 1.88 100 1014.8
20260503005603 20 202 0.0 6.4 0.03 1.88 1.88 100 1015.1
20260503005103 21 268 0.0 0.0 0.03 1.88 1.88 100 1015.1
20260503004603 21 268 0.0 3.2 0.03 1.88 1.88 100 1014.6
20260503004103 21 254 3.2 4.8 0.03 1.88 1.88 100 1014.7
20260503003603 21 289 0.0 3.2 0.00 1.85 1.85 100 1014.5
20260503003442 21 192 0.0 9.7 0.03 1.85 1.85 100 1014.1
20260503003103 20 216 0.0 0.0 0.03 1.85 1.85 100 1013.7
20260503002603 21 192 0.0 9.7 0.03 1.85 1.85 100 1014.1
20260503002133 21 202 8.0 12.9 0.03 1.85 1.85 100 1014.8
20260503002103 21 180 0.0 9.7 0.03 1.85 1.85 100 1014.4
20260503001603 21 202 8.0 12.9 0.03 1.85 1.85 100 1014.8
20260503001548 20 188 6.4 12.9 0.03 1.85 1.85 100 1012.9
20260503001103 21 250 9.7 16.1 0.03 1.85 1.85 100 1014.8
20260503000603 21 210 11.3 14.5 0.03 1.85 1.85 100 1014.4
20260503000103 21 237 9.7 11.3 0.03 1.85 1.85 100 1013.9
20260502235603 20 188 6.4 12.9 0.03 1.85 1.85 100 1012.9
20260502235455 21 182 3.2 6.4 0.03 1.85 1.85 100 1013.4
20260502235103 21 188 3.2 9.7 0.03 1.85 1.85 100 1013.2
20260502234603 21 182 3.2 6.4 0.03 1.85 1.85 100 1013.4
20260502234502 21 165 0.0 0.0 0.05 1.83 1.83 100 1014.3
20260502234103 21 165 0.0 0.0 0.05 1.85 1.85 100 1013.9
20260502233603 21 165 0.0 0.0 0.05 1.85 1.85 100 1014.2
20260502233104 21 165 0.0 0.0 0.05 1.83 1.83 100 1013.8
20260502232604 21 165 0.0 0.0 0.05 1.83 1.83 100 1014.3
20260502232104 21 165 0.0 8.0 0.05 1.83 1.83 100 1014.6
20260502231604 21 154 0.0 0.0 0.08 1.83 1.83 100 1014.5
20260502231457 21 180 1.6 6.4 0.10 1.83 1.83 100 1014.2
20260502231403 21 154 0.0 0.0 0.10 1.83 1.83 100 1014.2
20260502231104 21 154 0.0 0.0 0.10 1.83 1.83 100 1014.2
20260502230604 21 154 0.0 6.4 0.10 1.83 1.83 100 1014.0
20260502230104 21 180 1.6 6.4 0.10 1.83 1.83 100 1014.2
20260502225604 21 187 4.8 6.4 0.13 1.83 1.83 100 1014.3
20260502225104 21 144 1.6 8.0 0.13 1.83 1.83 100 1014.2
20260502224604 21 195 3.2 9.7 0.13 1.83 1.83 100 1014.6
20260502224104 21 232 3.2 3.2 0.10 1.80 1.80 100 1014.1
20260502223627 21 180 0.0 0.0 0.08 1.78 1.78 100 1013.8
20260502223604 21 130 0.0 4.8 0.10 1.80 1.80 100 1014.0
20260502223104 21 180 0.0 0.0 0.08 1.78 1.78 100 1014.1
20260502222604 21 180 0.0 0.0 0.08 1.78 1.78 100 1013.8
20260502222232 21 180 0.0 0.0 0.18 1.78 1.78 100 1014.2
20260502222104 21 180 0.0 0.0 0.18 1.78 1.78 100 1014.2
20260502221604 21 180 0.0 0.0 0.18 1.75 1.75 100 1014.3
20260502221104 21 180 0.0 0.0 0.20 1.73 1.73 100 1013.8
20260502220604 21 180 0.0 0.0 0.23 1.73 1.73 100 1014.0
20260502220104 21 180 0.0 0.0 0.30 1.73 1.73 100 1014.2
20260502215604 21 180 0.0 4.8 0.38 1.70 1.70 100 1014.0
20260502215104 21 175 4.8 8.0 0.91 1.70 1.70 100 1014.2
20260502214715 21 156 3.2 8.0 1.55 1.70 1.70 100 1014.1
20260502214713 21 84 6.4 8.0 1.70 1.70 1.70 100 1013.7
20260502214604 21 156 3.2 8.0 1.55 1.70 1.70 100 1014.1
20260502214501 21 84 6.4 8.0 1.70 1.70 1.70 100 1013.7
20260502214104 21 84 6.4 8.0 1.70 1.70 1.70 100 1013.7
20260502213629 21 172 0.0 0.0 1.70 1.70 1.70 100 1014.3
20260502213604 21 172 0.0 0.0 1.70 1.70 1.70 100 1014.1
20260502213104 21 172 0.0 0.0 1.70 1.70 1.70 100 1014.3
20260502212604 21 172 0.0 0.0 1.70 1.70 1.70 100 1014.4
20260502212104 21 172 0.0 0.0 1.60 1.60 1.60 100 1014.3
20260502211604 21 172 0.0 6.4 1.57 1.57 1.57 100 1014.6
20260502211316 21 229 6.4 6.4 1.52 1.52 1.52 100 1014.7